Total_Precipitation_Accumulation
0.06 0.08 0.10 0.10 0.06 0.05 0.05 0.05 0.03 0.02 0.01 0.01 0.03 0.02 0.01 0.00 0.00 0.00 0.00 0.01 0.02 0.01 0.01 0.01 0.01 0.00 0.00 0.00 0.00 0.00 0.00 0.00 0.00 0.00 0.00 0.00 0.00 0.00 0.01 0.01 0.01 0.02 0.03 0.03 0.04 0.04 0.05 0.06 0.07 0.12 0.17 0.19 0.22 0.27 0.32 0.34 0.36 0.39 0.42 0.47 0.52 0.53 0.54 0.56 0.55 0.53 0.52 0.50 0.50
0.05 0.06 0.07 0.08 0.06 0.05 0.04 0.03 0.03 0.03 0.02 0.01 0.03 0.03 0.02 0.01 0.00 0.00 0.00 0.01 0.01 0.01 0.01 0.01 0.01 0.01 0.00 0.00 0.00 0.00 0.00 0.00 0.01 0.01 0.01 0.01 0.02 0.02 0.03 0.04 0.05 0.06 0.07 0.08 0.08 0.09 0.10 0.11 0.20 0.26 0.30 0.33 0.37 0.42 0.47 0.50 0.51 0.52 0.54 0.57 0.56 0.54 0.54 0.56 0.54 0.51 0.48 0.47 0.42
0.04 0.05 0.06 0.07 0.06 0.04 0.03 0.02 0.03 0.02 0.01 0.01 0.02 0.02 0.03 0.04 0.02 0.01 0.01 0.01 0.01 0.01 0.01 0.00 0.01 0.01 0.01 0.01 0.01 0.01 0.00 0.00 0.01 0.01 0.02 0.04 0.05 0.06 0.07 0.07 0.08 0.10 0.12 0.13 0.14 0.15 0.16 0.18 0.33 0.41 0.45 0.49 0.51 0.55 0.57 0.53 0.53 0.55 0.58 0.59 0.38 0.32 0.31 0.30 0.27 0.25 0.24 0.24 0.22
0.03 0.04 0.05 0.06 0.06 0.07 0.07 0.05 0.04 0.04 0.03 0.02 0.01 0.01 0.01 0.02 0.03 0.03 0.03 0.01 0.01 0.01 0.01 0.00 0.00 0.00 0.00 0.00 0.01 0.01 0.02 0.02 0.03 0.04 0.05 0.06 0.09 0.10 0.11 0.12 0.13 0.14 0.16 0.17 0.19 0.21 0.25 0.34 0.39 0.43 0.45 0.45 0.44 0.44 0.43 0.39 0.36 0.36 0.35 0.28 0.27 0.26 0.25 0.22 0.19 0.18 0.17 0.17 0.14
0.02 0.03 0.04 0.06 0.06 0.07 0.07 0.07 0.06 0.07 0.08 0.05 0.02 0.01 0.00 0.01 0.02 0.03 0.03 0.03 0.01 0.01 0.02 0.04 0.02 0.01 0.02 0.04 0.05 0.05 0.05 0.06 0.07 0.08 0.09 0.10 0.13 0.15 0.16 0.17 0.17 0.18 0.20 0.24 0.27 0.30 0.33 0.33 0.34 0.36 0.36 0.35 0.36 0.35 0.33 0.29 0.29 0.29 0.28 0.24 0.24 0.23 0.21 0.20 0.17 0.15 0.15 0.14 0.12
0.02 0.03 0.04 0.07 0.07 0.06 0.06 0.08 0.09 0.09 0.08 0.08 0.06 0.03 0.01 0.01 0.02 0.02 0.02 0.02 0.02 0.02 0.03 0.05 0.05 0.05 0.05 0.05 0.06 0.07 0.08 0.08 0.10 0.11 0.12 0.13 0.15 0.16 0.17 0.17 0.19 0.19 0.20 0.22 0.27 0.27 0.27 0.27 0.29 0.30 0.30 0.30 0.28 0.27 0.25 0.24 0.24 0.24 0.23 0.20 0.19 0.18 0.19 0.19 0.17 0.16 0.15 0.13 0.13
0.02 0.03 0.04 0.06 0.05 0.04 0.03 0.04 0.06 0.07 0.07 0.08 0.07 0.06 0.05 0.02 0.03 0.02 0.02 0.02 0.02 0.01 0.01 0.03 0.04 0.04 0.04 0.05 0.07 0.08 0.09 0.12 0.13 0.14 0.14 0.14 0.15 0.17 0.20 0.19 0.20 0.21 0.23 0.24 0.25 0.23 0.20 0.19 0.21 0.21 0.21 0.20 0.18 0.16 0.15 0.16 0.17 0.14 0.12 0.15 0.15 0.16 0.17 0.18 0.17 0.16 0.15 0.14 0.12
0.02 0.02 0.03 0.04 0.05 0.04 0.02 0.03 0.03 0.04 0.05 0.08 0.08 0.08 0.06 0.05 0.05 0.03 0.01 0.01 0.01 0.01 0.02 0.02 0.03 0.05 0.06 0.08 0.10 0.11 0.11 0.11 0.13 0.15 0.18 0.20 0.21 0.23 0.24 0.25 0.25 0.24 0.24 0.23 0.22 0.14 0.08 0.09 0.10 0.12 0.13 0.14 0.11 0.09 0.08 0.09 0.10 0.09 0.10 0.12 0.12 0.13 0.13 0.12 0.12 0.12 0.13 0.13 0.13
0.01 0.00 0.01 0.03 0.04 0.03 0.02 0.02 0.04 0.04 0.04 0.05 0.06 0.07 0.06 0.06 0.05 0.03 0.02 0.02 0.02 0.02 0.02 0.02 0.03 0.05 0.06 0.07 0.08 0.10 0.12 0.13 0.15 0.18 0.20 0.21 0.22 0.21 0.21 0.22 0.20 0.17 0.15 0.14 0.11 0.07 0.04 0.04 0.05 0.08 0.11 0.14 0.10 0.08 0.08 0.09 0.08 0.10 0.12 0.14 0.15 0.15 0.15 0.15 0.14 0.13 0.16 0.25 0.24
0.00 0.00 0.00 0.00 0.01 0.02 0.03 0.03 0.02 0.03 0.03 0.04 0.04 0.04 0.04 0.04 0.03 0.02 0.02 0.02 0.02 0.02 0.02 0.02 0.04 0.05 0.06 0.07 0.09 0.11 0.13 0.16 0.15 0.15 0.15 0.15 0.14 0.13 0.13 0.12 0.12 0.11 0.10 0.10 0.10 0.07 0.04 0.04 0.05 0.05 0.07 0.12 0.11 0.10 0.09 0.10 0.12 0.14 0.16 0.18 0.20 0.22 0.25 0.26 0.25 0.25 0.28 0.36 0.38
0.00 0.00 0.00 0.00 0.01 0.01 0.02 0.01 0.01 0.02 0.03 0.03 0.03 0.02 0.01 0.01 0.01 0.01 0.01 0.01 0.02 0.02 0.02 0.02 0.04 0.05 0.06 0.08 0.09 0.11 0.12 0.12 0.09 0.08 0.08 0.08 0.09 0.10 0.10 0.10 0.10 0.09 0.08 0.07 0.09 0.09 0.07 0.03 0.04 0.04 0.06 0.09 0.11 0.11 0.11 0.13 0.16 0.17 0.18 0.18 0.19 0.23 0.28 0.30 0.33 0.35 0.36 0.36 0.36
0.01 0.00 0.00 0.00 0.01 0.01 0.01 0.00 0.00 0.01 0.03 0.04 0.03 0.02 0.01 0.00 0.01 0.01 0.01 0.02 0.02 0.02 0.02 0.02 0.04 0.05 0.06 0.07 0.07 0.07 0.08 0.08 0.07 0.07 0.09 0.10 0.10 0.11 0.14 0.14 0.10 0.07 0.06 0.06 0.05 0.05 0.05 0.03 0.04 0.05 0.06 0.07 0.12 0.15 0.16 0.17 0.17 0.16 0.16 0.16 0.17 0.21 0.24 0.27 0.30 0.31 0.30 0.28 0.29
0.00 0.00 0.00 0.00 0.00 0.00 0.00 0.00 0.00 0.01 0.01 0.02 0.01 0.01 0.00 0.00 0.01 0.01 0.02 0.03 0.03 0.03 0.03 0.02 0.04 0.05 0.05 0.04 0.04 0.04 0.05 0.06 0.08 0.11 0.13 0.15 0.14 0.14 0.13 0.13 0.11 0.08 0.07 0.06 0.06 0.06 0.05 0.06 0.08 0.09 0.09 0.11 0.13 0.17 0.20 0.21 0.17 0.15 0.15 0.14 0.15 0.17 0.19 0.21 0.21 0.18 0.16 0.18 0.20
0.00 0.00 0.00 0.00 0.00 0.00 0.00 0.00 0.00 0.01 0.01 0.01 0.01 0.00 0.00 0.00 0.01 0.02 0.03 0.04 0.04 0.03 0.03 0.03 0.04 0.04 0.04 0.03 0.03 0.04 0.05 0.09 0.13 0.16 0.18 0.15 0.14 0.14 0.13 0.13 0.12 0.10 0.09 0.10 0.11 0.11 0.10 0.11 0.13 0.15 0.16 0.16 0.16 0.18 0.19 0.15 0.15 0.13 0.11 0.10 0.11 0.12 0.13 0.14 0.13 0.12 0.11 0.12 0.14
0.02 0.01 0.01 0.00 0.00 0.00 0.00 0.00 0.00 0.01 0.01 0.01 0.00 0.00 0.01 0.02 0.02 0.04 0.05 0.06 0.04 0.03 0.02 0.04 0.04 0.03 0.03 0.02 0.03 0.06 0.11 0.18 0.20 0.18 0.15 0.15 0.13 0.12 0.12 0.12 0.12 0.11 0.11 0.13 0.13 0.11 0.11 0.12 0.13 0.15 0.16 0.14 0.12 0.12 0.12 0.10 0.10 0.09 0.08 0.08 0.08 0.08 0.08 0.08 0.08 0.08 0.10 0.11 0.12
0.09 0.06 0.04 0.02 0.01 0.00 0.00 0.00 0.01 0.01 0.01 0.01 0.01 0.02 0.03 0.04 0.05 0.07 0.08 0.08 0.05 0.03 0.03 0.04 0.04 0.04 0.04 0.05 0.11 0.16 0.20 0.22 0.18 0.14 0.12 0.13 0.12 0.12 0.12 0.12 0.11 0.12 0.13 0.13 0.10 0.08 0.08 0.09 0.09 0.10 0.11 0.10 0.10 0.08 0.07 0.08 0.09 0.09 0.09 0.09 0.10 0.10 0.09 0.08 0.10 0.13 0.15 0.15 0.16
0.13 0.15 0.13 0.07 0.02 0.01 0.01 0.01 0.01 0.01 0.01 0.02 0.03 0.03 0.04 0.05 0.07 0.08 0.09 0.09 0.05 0.03 0.04 0.05 0.05 0.05 0.07 0.14 0.23 0.25 0.23 0.18 0.15 0.13 0.13 0.13 0.13 0.14 0.14 0.13 0.14 0.16 0.16 0.11 0.08 0.06 0.06 0.07 0.08 0.09 0.08 0.09 0.08 0.08 0.08 0.09 0.10 0.12 0.12 0.12 0.13 0.14 0.14 0.14 0.20 0.23 0.24 0.23 0.24
0.07 0.13 0.15 0.11 0.10 0.13 0.12 0.02 0.02 0.02 0.02 0.03 0.03 0.04 0.05 0.06 0.07 0.08 0.08 0.07 0.05 0.06 0.06 0.07 0.06 0.07 0.12 0.24 0.27 0.25 0.21 0.17 0.15 0.15 0.15 0.17 0.17 0.17 0.18 0.17 0.19 0.17 0.14 0.09 0.07 0.06 0.06 0.07 0.09 0.09 0.09 0.09 0.08 0.08 0.09 0.11 0.13 0.14 0.15 0.15 0.16 0.17 0.19 0.21 0.31 0.36 0.37 0.37 0.35
0.04 0.06 0.08 0.09 0.12 0.17 0.20 0.18 0.22 0.15 0.08 0.08 0.05 0.04 0.06 0.06 0.07 0.07 0.08 0.07 0.07 0.08 0.09 0.08 0.11 0.16 0.21 0.30 0.25 0.23 0.21 0.18 0.17 0.17 0.18 0.20 0.18 0.17 0.17 0.17 0.16 0.13 0.10 0.09 0.07 0.07 0.07 0.08 0.09 0.10 0.11 0.11 0.11 0.09 0.10 0.13 0.15 0.17 0.19 0.21 0.22 0.25 0.28 0.30 0.35 0.38 0.39 0.39 0.38
0.09 0.07 0.06 0.05 0.06 0.07 0.11 0.16 0.18 0.21 0.24 0.27 0.22 0.15 0.09 0.10 0.10 0.08 0.07 0.07 0.07 0.07 0.08 0.08 0.18 0.24 0.27 0.28 0.24 0.21 0.19 0.17 0.18 0.19 0.19 0.17 0.15 0.15 0.15 0.17 0.13 0.10 0.09 0.08 0.07 0.08 0.08 0.09 0.09 0.10 0.12 0.12 0.17 0.18 0.20 0.26 0.27 0.27 0.27 0.28 0.29 0.31 0.33 0.34 0.34 0.32 0.32 0.32 0.33
0.15 0.13 0.10 0.06 0.06 0.07 0.07 0.05 0.04 0.08 0.13 0.14 0.14 0.14 0.17 0.24 0.26 0.20 0.12 0.11 0.07 0.06 0.07 0.09 0.19 0.26 0.30 0.33 0.25 0.20 0.18 0.19 0.20 0.20 0.18 0.14 0.13 0.14 0.15 0.15 0.11 0.09 0.08 0.09 0.09 0.10 0.11 0.13 0.15 0.16 0.20 0.28 0.32 0.36 0.41 0.49 0.48 0.45 0.42 0.41 0.40 0.38 0.37 0.35 0.35 0.34 0.32 0.32 0.33
0.19 0.19 0.19 0.17 0.13 0.10 0.09 0.08 0.08 0.07 0.06 0.06 0.06 0.09 0.12 0.14 0.14 0.12 0.12 0.18 0.12 0.10 0.12 0.15 0.27 0.35 0.39 0.40 0.27 0.22 0.22 0.22 0.20 0.18 0.16 0.14 0.12 0.12 0.13 0.11 0.09 0.09 0.09 0.11 0.11 0.12 0.15 0.19 0.23 0.26 0.34 0.51 0.54 0.58 0.63 0.68 0.68 0.62 0.55 0.50 0.44 0.41 0.39 0.36 0.37 0.36 0.35 0.36 0.38
0.15 0.17 0.19 0.21 0.19 0.18 0.16 0.11 0.08 0.06 0.06 0.06 0.05 0.07 0.07 0.06 0.05 0.05 0.07 0.10 0.09 0.13 0.19 0.27 0.39 0.45 0.47 0.45 0.32 0.25 0.21 0.19 0.19 0.18 0.17 0.18 0.17 0.18 0.19 0.20 0.20 0.20 0.20 0.21 0.23 0.24 0.26 0.31 0.34 0.44 0.57 0.66 0.68 0.68 0.66 0.64 0.59 0.54 0.48 0.42 0.41 0.39 0.37 0.38 0.39 0.40 0.41 0.42 0.44
0.24 0.22 0.17 0.11 0.11 0.11 0.12 0.13 0.09 0.07 0.06 0.06 0.06 0.05 0.05 0.05 0.07 0.09 0.09 0.10 0.12 0.20 0.31 0.42 0.45 0.43 0.40 0.39 0.33 0.29 0.26 0.19 0.21 0.22 0.23 0.25 0.28 0.31 0.35 0.40 0.42 0.43 0.44 0.44 0.46 0.47 0.47 0.49 0.53 0.57 0.60 0.63 0.60 0.55 0.48 0.43 0.39 0.36 0.35 0.35 0.36 0.35 0.34 0.33 0.35 0.35 0.35 0.35 0.34
0.32 0.28 0.20 0.09 0.06 0.06 0.07 0.08 0.11 0.12 0.13 0.12 0.10 0.07 0.05 0.04 0.06 0.08 0.12 0.17 0.25 0.38 0.47 0.43 0.39 0.33 0.29 0.31 0.28 0.25 0.23 0.22 0.24 0.27 0.31 0.34 0.37 0.41 0.45 0.51 0.58 0.60 0.59 0.57 0.53 0.50 0.50 0.53 0.54 0.66 0.74 0.59 0.52 0.46 0.41 0.37 0.36 0.36 0.37 0.38 0.37 0.37 0.35 0.31 0.30 0.30 0.29 0.29 0.28
0.34 0.30 0.22 0.11 0.05 0.03 0.03 0.03 0.07 0.11 0.12 0.11 0.11 0.10 0.10 0.09 0.12 0.14 0.20 0.37 0.43 0.44 0.40 0.33 0.27 0.25 0.25 0.25 0.28 0.28 0.30 0.35 0.44 0.53 0.61 0.68 0.72 0.74 0.73 0.70 0.63 0.60 0.59 0.59 0.60 0.64 0.68 0.70 0.83 0.84 0.77 0.66 0.62 0.59 0.54 0.48 0.44 0.43 0.42 0.42 0.35 0.31 0.28 0.25 0.21 0.19 0.18 0.19 0.20
0.34 0.35 0.29 0.18 0.12 0.07 0.04 0.02 0.06 0.06 0.06 0.08 0.09 0.10 0.12 0.16 0.20 0.24 0.31 0.40 0.36 0.34 0.31 0.28 0.29 0.28 0.27 0.31 0.33 0.38 0.50 0.72 0.83 0.88 0.89 0.90 0.87 0.82 0.77 0.73 0.72 0.73 0.75 0.79 0.90 0.99 1.04 1.03 1.01 0.94 0.85 0.74 0.64 0.58 0.54 0.49 0.45 0.43 0.41 0.37 0.28 0.23 0.21 0.19 0.15 0.14 0.13 0.12 0.12
0.34 0.41 0.40 0.36 0.32 0.21 0.09 0.04 0.06 0.06 0.05 0.05 0.08 0.11 0.15 0.20 0.28 0.38 0.43 0.38 0.31 0.30 0.31 0.28 0.31 0.38 0.43 0.42 0.51 0.63 0.79 0.94 0.91 0.88 0.85 0.81 0.74 0.67 0.58 0.48 0.43 0.41 0.53 0.87 0.99 1.09 1.07 0.83 0.86 0.87 0.87 0.83 0.76 0.63 0.51 0.44 0.39 0.34 0.30 0.28 0.32 0.31 0.28 0.26 0.24 0.21 0.19 0.17 0.15
0.32 0.45 0.52 0.51 0.39 0.26 0.14 0.06 0.06 0.06 0.07 0.09 0.11 0.14 0.19 0.27 0.38 0.37 0.29 0.22 0.20 0.22 0.25 0.25 0.35 0.42 0.49 0.56 0.73 0.82 0.82 0.71 0.65 0.60 0.55 0.47 0.40 0.34 0.30 0.28 0.28 0.32 0.44 0.70 0.71 0.74 0.71 0.54 0.58 0.59 0.60 0.62 0.58 0.54 0.47 0.38 0.37 0.37 0.36 0.34 0.23 0.20 0.20 0.20 0.19 0.19 0.19 0.18 0.17
0.19 0.41 0.59 0.60 0.40 0.28 0.21 0.18 0.09 0.08 0.09 0.11 0.14 0.22 0.32 0.41 0.30 0.21 0.16 0.16 0.18 0.20 0.22 0.25 0.32 0.37 0.41 0.44 0.51 0.59 0.64 0.64 0.52 0.43 0.35 0.28 0.24 0.22 0.23 0.24 0.26 0.27 0.29 0.38 0.46 0.47 0.44 0.44 0.44 0.46 0.48 0.48 0.44 0.42 0.39 0.33 0.27 0.24 0.22 0.19 0.17 0.16 0.15 0.14 0.13 0.13 0.12 0.12 0.12
0.13 0.22 0.28 0.29 0.36 0.34 0.28 0.26 0.13 0.10 0.12 0.17 0.28 0.36 0.35 0.23 0.14 0.10 0.09 0.08 0.14 0.17 0.19 0.22 0.22 0.23 0.26 0.29 0.32 0.34 0.34 0.31 0.21 0.17 0.17 0.22 0.20 0.21 0.22 0.23 0.27 0.31 0.36 0.42 0.44 0.49 0.51 0.47 0.44 0.41 0.38 0.34 0.34 0.33 0.32 0.28 0.26 0.24 0.21 0.17 0.15 0.14 0.13 0.12 0.12 0.12 0.13 0.13 0.14
0.05 0.08 0.11 0.17 0.20 0.23 0.27 0.28 0.20 0.18 0.23 0.33 0.37 0.29 0.17 0.07 0.06 0.05 0.05 0.04 0.10 0.14 0.15 0.13 0.11 0.10 0.09 0.11 0.11 0.12 0.13 0.14 0.16 0.16 0.17 0.22 0.26 0.29 0.32 0.34 0.36 0.38 0.41 0.49 0.68 0.68 0.57 0.42 0.36 0.31 0.27 0.25 0.27 0.27 0.26 0.25 0.25 0.24 0.22 0.18 0.14 0.12 0.11 0.11 0.10 0.10 0.09 0.10 0.11
0.03 0.05 0.08 0.11 0.15 0.20 0.26 0.35 0.44 0.42 0.34 0.22 0.14 0.10 0.08 0.05 0.05 0.03 0.02 0.02 0.01 0.02 0.03 0.03 0.03 0.03 0.04 0.05 0.10 0.12 0.14 0.17 0.19 0.23 0.28 0.37 0.43 0.45 0.46 0.51 0.53 0.58 0.64 0.71 0.71 0.66 0.57 0.42 0.35 0.31 0.30 0.29 0.31 0.32 0.31 0.29 0.27 0.26 0.25 0.21 0.17 0.14 0.12 0.12 0.12 0.11 0.10 0.10 0.11
0.04 0.06 0.08 0.10 0.12 0.19 0.30 0.46 0.42 0.31 0.19 0.13 0.10 0.08 0.07 0.04 0.04 0.03 0.03 0.03 0.04 0.06 0.09 0.11 0.13 0.15 0.17 0.19 0.24 0.25 0.25 0.26 0.31 0.33 0.37 0.45 0.53 0.61 0.67 0.67 0.67 0.71 0.72 0.67 0.62 0.58 0.54 0.48 0.37 0.32 0.33 0.36 0.41 0.40 0.38 0.36 0.34 0.30 0.26 0.22 0.19 0.17 0.15 0.13 0.12 0.12 0.11 0.11 0.16
0.07 0.10 0.14 0.17 0.22 0.33 0.46 0.55 0.33 0.20 0.13 0.10 0.09 0.08 0.07 0.08 0.08 0.08 0.09 0.10 0.14 0.21 0.27 0.29 0.32 0.33 0.34 0.34 0.37 0.39 0.39 0.41 0.41 0.43 0.46 0.48 0.55 0.59 0.61 0.58 0.62 0.65 0.68 0.68 0.65 0.61 0.56 0.51 0.47 0.44 0.45 0.49 0.50 0.47 0.44 0.41 0.35 0.29 0.24 0.21 0.19 0.16 0.15 0.14 0.14 0.14 0.14 0.14 0.19
0.11 0.15 0.23 0.33 0.44 0.52 0.52 0.41 0.27 0.21 0.20 0.16 0.13 0.11 0.10 0.09 0.08 0.07 0.08 0.10 0.16 0.21 0.24 0.24 0.26 0.26 0.24 0.22 0.22 0.23 0.26 0.28 0.29 0.30 0.34 0.41 0.53 0.61 0.65 0.63 0.67 0.70 0.73 0.74 0.73 0.68 0.62 0.58 0.53 0.48 0.47 0.51 0.50 0.46 0.40 0.38 0.32 0.27 0.24 0.22 0.20 0.18 0.16 0.15 0.15 0.15 0.16 0.16 0.16
0.16 0.24 0.35 0.48 0.53 0.45 0.31 0.23 0.23 0.23 0.21 0.17 0.16 0.15 0.13 0.11 0.08 0.06 0.05 0.05 0.07 0.07 0.08 0.11 0.10 0.11 0.12 0.14 0.16 0.20 0.23 0.27 0.34 0.37 0.40 0.49 0.58 0.66 0.71 0.70 0.72 0.70 0.67 0.67 0.65 0.60 0.53 0.49 0.43 0.40 0.40 0.45 0.46 0.42 0.37 0.38 0.32 0.28 0.26 0.23 0.20 0.18 0.16 0.14 0.14 0.14 0.14 0.16 0.18
0.23 0.34 0.43 0.46 0.39 0.29 0.21 0.20 0.22 0.22 0.21 0.18 0.17 0.15 0.13 0.11 0.08 0.06 0.06 0.07 0.06 0.05 0.05 0.10 0.11 0.12 0.15 0.20 0.21 0.24 0.27 0.29 0.37 0.41 0.44 0.47 0.56 0.67 0.76 0.78 0.68 0.60 0.54 0.49 0.44 0.38 0.34 0.31 0.29 0.32 0.39 0.50 0.47 0.44 0.42 0.43 0.36 0.31 0.28 0.25 0.22 0.19 0.17 0.16 0.16 0.16 0.16 0.19 0.19
0.36 0.39 0.39 0.34 0.27 0.24 0.22 0.17 0.18 0.20 0.22 0.24 0.22 0.19 0.15 0.11 0.08 0.06 0.05 0.05 0.05 0.05 0.05 0.07 0.10 0.15 0.21 0.26 0.30 0.41 0.52 0.58 0.72 0.81 0.85 0.83 0.83 0.86 0.85 0.72 0.47 0.34 0.28 0.26 0.24 0.23 0.22 0.23 0.26 0.32 0.41 0.52 0.51 0.49 0.48 0.47 0.38 0.32 0.28 0.24 0.22 0.20 0.18 0.16 0.17 0.18 0.20 0.21 0.18
0.40 0.34 0.29 0.27 0.27 0.25 0.23 0.20 0.19 0.20 0.23 0.25 0.24 0.20 0.15 0.11 0.09 0.08 0.07 0.07 0.08 0.09 0.11 0.15 0.23 0.34 0.43 0.49 0.58 0.69 0.77 0.81 0.89 0.97 1.04 1.04 0.91 0.77 0.60 0.40 0.31 0.25 0.22 0.21 0.22 0.21 0.20 0.20 0.24 0.31 0.39 0.46 0.50 0.50 0.49 0.48 0.45 0.38 0.30 0.23 0.22 0.21 0.18 0.16 0.18 0.22 0.25 0.23 0.20
0.22 0.17 0.17 0.19 0.19 0.18 0.17 0.16 0.15 0.14 0.14 0.15 0.14 0.12 0.10 0.09 0.07 0.06 0.05 0.06 0.07 0.09 0.12 0.18 0.40 0.54 0.60 0.57 0.53 0.48 0.47 0.54 0.55 0.57 0.57 0.56 0.50 0.40 0.33 0.34 0.31 0.26 0.21 0.18 0.20 0.19 0.19 0.20 0.22 0.27 0.34 0.42 0.44 0.47 0.50 0.51 0.48 0.40 0.31 0.26 0.25 0.26 0.27 0.23 0.23 0.23 0.21 0.19 0.17